Weather History for Sarasota, FL

Change the Weather History Date:

Friday, December 21, 2012

  Actual Average Record
Temperature  
Mean Temperature 62 °F 62 °F  
Max Temperature 70 °F 72 °F 87 °F (2013)
Min Temperature 53 °F 53 °F 28 °F (1981)
Degree Days  
Heating Degree Days 3 4  
Month to date heating degree days 6 71  
Since 1 July heating degree days 47 104  
Cooling Degree Days 0 2  
Month to date cooling degree days 90 56  
Year to date cooling degree days 3814 3356  
Growing Degree Days 12 (Base 50)    
Moisture  
Dew Point 46 °F    
Average Humidity 60    
Maximum Humidity 90    
Minimum Humidity 42    
Precipitation  
Precipitation 0.04 in 0.10 in 2.75 in (1919)
Month to date precipitation 1.32 1.70  
Year to date precipitation 45.36 52.18  
Sea Level Pressure  
Sea Level Pressure 30.11 in    
Wind  
Wind Speed 16 mph (NNW)    
Max Wind Speed 26 mph    
Max Gust Speed 35 mph    
Visibility 10 miles    
Events Rain    
T = Trace of Precipitation, MM = Missing Value Source: NWS Daily Summary

Daily Weather History Graph

Daily Weather History Graph

Search for Another Location

Airport:

Trip Planner

Search our weather history database for the weather conditions in past years. The results will help you decide how hot, cold, wet, or windy it might be!

Date:

Astronomy

Dec. 21, 2012 Rise Set
Actual Time 7:16 AM EST 5:41 PM EST
Civil Twilight 6:50 AM EST 6:06 PM EST
Nautical Twilight 6:21 AM EST 6:35 PM EST
Astronomical Twilight 5:52 AM EST 7:04 PM EST
Moon 1:08 PM EST (12/21) 1:23 AM EST (12/21)
Length of Visible Light 11h 15m
Length of Day
10h 24m
Waxing Gibbous, 64% of the Moon is Illuminated
Dec 21
Waxing Gibbous
Dec 28
Full
Jan 4
Last Quarter
Jan 11
New
Jan 18
First Quarter

Hourly Weather History & Observations

Time (EST) Temp. Dew Point Humidity Pressure Visibility Wind Dir Wind Speed Gust Speed Precip Events Conditions
12:01 AM 69.8 °F 66.2 °F 88% 29.99 in 4.0 mi WSW 15.0 mph 23.0 mph 0.03 in Rain Rain
12:37 AM 69.8 °F 68.0 °F 94% 29.98 in 7.0 mi West 16.1 mph - 0.06 in Rain Light Rain
12:53 AM 69.1 °F 66.0 °F 90% 29.99 in 10.0 mi WNW 15.0 mph 26.5 mph 0.06 in Rain Light Rain
1:36 AM 66.2 °F 60.8 °F 83% 30.00 in 10.0 mi NW 18.4 mph 26.5 mph N/A   Overcast
1:53 AM 66.9 °F 59.0 °F 76% 30.00 in 10.0 mi NW 16.1 mph 25.3 mph N/A   Overcast
2:53 AM 64.9 °F 55.0 °F 70% 30.01 in 10.0 mi NNW 18.4 mph 24.2 mph N/A   Mostly Cloudy
3:53 AM 62.1 °F 50.0 °F 65% 30.03 in 10.0 mi NNW 15.0 mph 28.8 mph N/A   Mostly Cloudy
4:53 AM 59.0 °F 46.9 °F 64% 30.05 in 10.0 mi NNW 19.6 mph 25.3 mph N/A   Mostly Cloudy
5:53 AM 57.0 °F 45.0 °F 64% 30.08 in 10.0 mi NNW 17.3 mph 28.8 mph N/A   Partly Cloudy
6:53 AM 55.9 °F 42.1 °F 60% 30.10 in 10.0 mi NNW 15.0 mph 31.1 mph N/A   Clear
7:53 AM 55.9 °F 42.1 °F 60% 30.13 in 10.0 mi NNW 13.8 mph 28.8 mph N/A   Clear
8:53 AM 57.9 °F 41.0 °F 53% 30.16 in 10.0 mi NNW 19.6 mph 27.6 mph N/A   Clear
9:53 AM 59.0 °F 39.0 °F 48% 30.18 in 10.0 mi NNW 21.9 mph 27.6 mph N/A   Clear
10:53 AM 60.1 °F 37.9 °F 44% 30.18 in 10.0 mi NNW 16.1 mph 26.5 mph N/A   Clear
11:53 AM 61.0 °F 39.0 °F 44% 30.18 in 10.0 mi NNW 23.0 mph 32.2 mph N/A   Clear
12:53 PM 61.0 °F 39.9 °F 46% 30.16 in 10.0 mi NNW 23.0 mph 29.9 mph N/A   Clear
1:53 PM 61.0 °F 39.0 °F 44% 30.14 in 10.0 mi NNW 21.9 mph 31.1 mph N/A   Clear
2:53 PM 60.1 °F 37.0 °F 42% 30.13 in 10.0 mi NW 21.9 mph 28.8 mph N/A   Clear
3:53 PM 60.1 °F 37.9 °F 44% 30.13 in 10.0 mi NW 11.5 mph 26.5 mph N/A   Clear
4:53 PM 57.9 °F 39.0 °F 49% 30.14 in 10.0 mi NNW 16.1 mph 25.3 mph N/A   Clear
5:53 PM 57.0 °F 39.9 °F 53% 30.14 in 10.0 mi NNW 17.3 mph 24.2 mph N/A   Clear
6:53 PM 55.9 °F 42.1 °F 60% 30.16 in 10.0 mi NNW 15.0 mph 21.9 mph N/A   Clear
7:53 PM 55.9 °F 42.1 °F 60% 30.18 in 10.0 mi NNW 12.7 mph 20.7 mph N/A   Clear
8:53 PM 55.0 °F 39.9 °F 57% 30.20 in 10.0 mi NNW 10.4 mph 19.6 mph N/A   Clear
9:53 PM 54.0 °F 39.0 °F 57% 30.22 in 10.0 mi NNW 9.2 mph - N/A   Clear
10:53 PM 54.0 °F 37.9 °F 55% 30.22 in 10.0 mi NNW 9.2 mph - N/A   Clear
11:53 PM 53.1 °F 37.9 °F 57% 30.22 in 10.0 mi North 6.9 mph - N/A   Clear